Regional Weather Roundup
Issued by NWS Upton, NY

Current Version | Previous Version | Text Only | Print | Product List | Glossary On
Versions: 1 2 3 4 5 6 7 8 9 10 11 12 13 14 15 16 17 18 19 20 21 22 23 24 25 26 27 28 29 30 31 32 33 34 35 36 37 38 39 40 41 42 43 44 45 46 47 48 49 50
911
ASUS41 KOKX 231909
RWROKX

REGIONAL WEATHER ROUNDUP
NATIONAL WEATHER SERVICE NEW YORK NY
300 PM EDT SAT SEP 23 2017

NOTE: "FAIR" INDICATES FEW OR NO CLOUDS BELOW 12,000 FEET WITH NO
SIGNIFICANT WEATHER AND/OR OBSTRUCTIONS TO VISIBILITY.

NYZ071-072-176-178-NJZ106-104-232000-
NEW YORK CITY METRO AREA

CITY           SKY/WX    TMP DP  RH WIND       PRES   REMARKS
Central Park   SUNNY     86  48  26 NE8       30.04F
Bronx Bot Gard   N/A     84  48  28 N7        30.03S
LaGuardia APRT MOSUNNY   85  51  31 N14       30.00F
Kennedy INTL   MOSUNNY   87  57  35 N14       30.01F
Breezy Point     N/A     82 N/A N/A N12G17      N/A
Newark/Liberty SUNNY     88  53  30 N12       30.00F
Teterboro      SUNNY     88  51  28 N7        30.00F
$$

NYZ177-179-078>081-232000-
LONG ISLAND NEW YORK

CITY           SKY/WX    TMP DP  RH WIND       PRES   REMARKS
Jones Beach      N/A     81 N/A N/A N14         N/A
Matinecock PT    N/A     81 N/A N/A N10         N/A
Farmingdale    SUNNY     84  61  45 NW13      30.00F
MacArthur/ISP  MOSUNNY   85  64  49 N13       29.99F
Shirley        SUNNY     86  65  49 N14       29.99F
Mt Sinai Harb    N/A     79 N/A N/A NW3         N/A
Westhampton    SUNNY     83  63  50 N13G20    30.00F
East Hampton   FAIR      79  65  60 N9        29.99S
Montauk          N/A     77  66  68 NE6       30.00F
$$

NYZ052-065-067-232000-
HUDSON VALLEY

CITY           SKY/WX    TMP DP  RH WIND       PRES   REMARKS
White Plains   SUNNY     85  50  29 N10       30.02F
Larchmont Harb   N/A     82 N/A N/A NW12G17     N/A
Croton On Huds   N/A     88 N/A N/A NW7         N/A
Newburgh       SUNNY     84  55  37 N8        30.05F
Montgomery     SUNNY     85  60  42 CALM      30.03F
Poughkeepsie   SUNNY     84  51  31 VRB7      30.02F
Albany         MOSUNNY   83  55  38 N7        30.06F
$$

NJZ001-105-106-008-010-013-015-019>022-104-232000-
NEW JERSEY

CITY           SKY/WX    TMP DP  RH WIND       PRES   REMARKS
Newark/Liberty SUNNY     88  53  30 N12       30.00F
Teterboro      SUNNY     88  51  28 N7        30.00F
Caldwell       SUNNY     87  53  31 VRB7      30.02F
Somerville     NOT AVBL
Linden         NOT AVBL
Perth Amboy      N/A     84 N/A N/A NW7         N/A
Sussex         SUNNY     85  57  38 N7        30.04F
Andover          N/A     85  56  37 MISG      30.05F
Trenton        SUNNY     87  62  43 N10       30.02F
Millville      SUNNY     88  66  48 N10       30.02F HX  90
Atlantic City  MOSUNNY   86  65  49 NW8       30.02S
Wrightstown    SUNNY     85  64  47 N12       29.99F
Toms River     SUNNY     85  63  47 N15       30.02F
Belmar         SUNNY     85  60  42 N9        30.03F
$$

PAZ047>061-062-071-232000-
EASTERN PENNSYLVANIA

CITY           SKY/WX    TMP DP  RH WIND       PRES   REMARKS
Philadelphia   MOSUNNY   88  61  40 NE8G17    30.02F
Allentown      SUNNY     88  56  33 NW6       30.05F
Scranton       SUNNY     85  57  38 N8        30.09F
$$

CTZ002-004>006-009-010-012-RIZ004-006-007-MAZ004-011-015-232000-
SOUTHERN NEW ENGLAND
 IN CT

CITY           SKY/WX    TMP DP  RH WIND       PRES   REMARKS
Bradley INTL   MOSUNNY   86  55  34 N9        30.01F
Hartford       SUNNY     86  57  37 N9        30.00F
Danbury        SUNNY     84  54  35 NW5       30.04F
Wtrbury/Oxford SUNNY     82  61  48 N13       30.04F
Norwalk Harbor   N/A     81 N/A N/A N14         N/A
Bridgeport     SUNNY     87  62  43 VRB3      29.99F
Meriden        SUNNY     86  58  38 N9        30.00F
New Haven      SUNNY     87  60  40 N9G22     29.99F
Chester        FAIR      86  63  45 N12G18    30.01F
Groton         MOSUNNY   84  66  54 N13       29.98F
Wilimantic     SUNNY     85  64  49 VRB7      30.00F

 IN RI

CITY           SKY/WX    TMP DP  RH WIND       PRES   REMARKS
Providence     MOSUNNY   80  67  64 N14       30.00F
Block Island   SUNNY     73  67  81 NE13G20   30.00R
Westerly       MOSUNNY   83  67  58 NE8       29.99S
 IN MA

CITY           SKY/WX    TMP DP  RH WIND       PRES   REMARKS
Boston         MOSUNNY   69  60  73 E13       30.01S
Worcester      SUNNY     79  57  46 NE9       30.05S
Westfield      SUNNY     85  55  35 N8        30.01F
Provincetown   CLOUDY    63  61  94 N12       30.01S FOG
Nantucket      FOG       63  63 100 N18G26    29.96S VSB 3/4
$$

ANZ330-335-338-340-345-350-353-355-232000-
COASTAL MARINE OBSERVATIONS


STATION/POSITION TIME  SKY/WX   TEMP    WIND        PRES    VSBY  WAVE
                                AIR SEA DIR/SP/G                  HT/PER
                 (UTC)          (F)     (DEG/KT/KT) (MB)    (MI)  (FT/S)
NY HARB ENTRANCE 1750            74 71  320/ 10/ 10 1015.7          4/11
20 S FIRE ISLAND 1750            70 67  330/  6/  8 1016.0          5/ 7
GREAT SOUTH BAY  1815            79 70  360/ 12/ 14   N/A
23 SSW MONTAUK P 1750            67 63              1015.7          5/ 7
15 E BARNEGAT LI 1830               70                N/A           5/14
HUDSON CANYON    1750            69 68  360/ 16/ 19 1014.6          7/15
KINGS POINT      1830            79 71   40/  4/  5 1017.1
EXECUTION ROCKS  1845            80      20/ 10/ 12   N/A
WESTERN LI SOUND NOT AVBL
CENTRAL LI SOUND 1845            75     350/  6/ 10   N/A           1
EASTERN LI SOUND NOT AVBL
ROBBINS REEF     1836            82      30/ 12/ 14 1016.8
$$


>>>>>>>>>>>>>>>>>>>>>>>>>>>> KEY <<<<<<<<<<<<<<<<<<<<<<<<<<<
>                                                          <
>     SKY/WX - Sky Condition/Present Weather               <
>     TMP    - Temperature in Fahrenheit                   <
>     DP     - Dew Point in Fahrenheit                     <
>     RH     - Relative Humidity in Percent                <
>     WIND   - Direction (from) and Speed in MPH           <
>     PRES   - Mean Sea Level Pressure (inches of Hg)      <
>     WCI    - Wind Chill Index                            <
>     VSB    - VISIBILITY IN MILES                         <
>     HX     - HEAT INDEX                                  <
>     TC     - TEMPERATURE IN CELSIUS                      <
>     VRB    - VARIABLE WIND DIRECTION                     <
>                                                          <
>>>>>>>>>>>>>>>>>>>>>>>>>>>> KEY <<<<<<<<<<<<<<<<<<<<<<<<<<<




USA.gov is the U.S. government's official web portal to all federal, state and local government web resources and services.